Flight Track Log - Related Links

Times and Time Zones

All times are in EDT time to prevent confusion due to time zone crossing. See the N682RW flight status page for this flight to view local times or setup timezone preferences in your user account.

Time Position Orientation Groundspeed Altitude Reporting Facility
EDT Latitude Longitude Course Direction KTS MPH feet Rate Location/Type
Tue 04:38:06 PM 41.8333 -87.8167 349° North 277 319 2,900  Level Chicago TRACON
Tue 04:39:06 PM 41.8500 -87.7333 75° East 262 302 2,900 381 Level Chicago TRACON
Tue 04:40:12 PM 41.8167 -87.6333 114° Southeast 283 326 3,700 741 Climbing Chicago TRACON
Tue 04:40:27 PM 41.8092 -87.6128 116° Southeast 273 314 3,900 2,338 Climbing Chicago Center
Tue 04:41:29 PM 41.8044 -87.5072 93° East 288 331 6,700 3,145 Climbing Chicago Center
Tue 04:42:31 PM 41.7953 -87.3936 96° East 304 350 10,400 2,952 Climbing Chicago Center
Tue 04:43:33 PM 41.7822 -87.2622 98° East 350 403 12,800 2,855 Climbing Chicago Center
Tue 04:44:35 PM 41.7650 -87.0914 98° East 386 444 16,300 2,832 Climbing Chicago Center
Tue 04:45:38 PM 41.7636 -86.9325 91° East 433 498 18,700 1,296 Climbing Chicago Center
Tue 04:46:40 PM 41.7658 -86.7683 89° East 442 509 19,000 145 Climbing Chicago Center
Tue 04:47:42 PM 41.7661 -86.5992 90° East 451 519 19,000  Level Chicago Center
Tue 04:48:44 PM 41.7667 -86.4350 90° East 445 512 19,000  Level Chicago Center
Tue 04:49:46 PM 41.7719 -86.2706 87° East 444 511 19,000  Level Chicago Center
Tue 04:50:48 PM 41.8067 -86.1147 73° East 435 501 19,000  Level Chicago Center
Tue 04:51:50 PM 41.8444 -85.9258 75° East 437 503 19,000  Level Chicago Center
Tue 04:52:52 PM 41.8756 -85.7669 75° East 438 504 19,000  Level Chicago Center
Tue 04:53:54 PM 41.9061 -85.6072 76° East 438 504 19,000  Level Chicago Center
Tue 04:54:56 PM 41.9364 -85.4464 76° East 439 505 19,000  Level Chicago Center
Tue 04:55:58 PM 41.9667 -85.2858 76° East 440 506 19,000  Level Chicago Center
Tue 04:56:21 PM 41.9808 -85.2233 73° East 430 495 19,000  Level Cleveland Center
Tue 04:57:21 PM 42.0125 -85.0525 76° East 430 495 19,000  Level Cleveland Center
Tue 04:58:21 PM 42.0417 -84.8922 76° East 430 495 19,000  Level Cleveland Center
Tue 04:59:21 PM 42.0683 -84.7317 77° East 430 495 19,000 -650 Level Cleveland Center
Tue 05:00:21 PM 42.0175 -84.5803 114° Southeast 413 475 17,700 -1,000 Descending Cleveland Center
Tue 05:01:21 PM 41.9186 -84.4847 144° Southeast 394 453 17,000 -866 Descending Cleveland Center
Tue 05:01:58 PM 41.8819 -84.3989 120° Southeast 444 511 16,300 -1,600 Descending Cleveland Center
Tue 05:02:21 PM 41.8714 -84.3339 102° East 410 472 15,400 -2,667 Descending Cleveland Center
Tue 05:02:52 PM 41.8636 -84.2556 98° East 431 496 13,900 -2,300 Descending Cleveland Center
Tue 05:03:21 PM 41.8489 -84.1933 108° East 419 482 13,100 -1,869 Descending Cleveland Center
Tue 05:03:53 PM 41.8350 -84.1033 102° East 411 473 12,000 -1,100 Descending Cleveland Center
Tue 05:04:21 PM 41.8242 -84.0497 105° East 414 476 12,000  Level Cleveland Center
Tue 05:04:54 PM 41.8353 -83.9583 81° East 364 419 12,000  Level Cleveland Center
Tue 05:05:21 PM 41.8489 -83.9228 63° Northeast 373 429 12,000  Level Cleveland Center
Tue 05:05:55 PM 41.9025 -83.8669 38° Northeast 342 394 12,000  Level Cleveland Center
Tue 05:06:21 PM 41.9219 -83.8400 46° Northeast 316 364 12,000  Level Cleveland Center
Tue 05:06:56 PM 41.9778 -83.7814 38° Northeast 348 400 12,000  Level Cleveland Center
Tue 05:07:21 PM 41.9994 -83.7547 42° Northeast 334 384 12,000  Level Cleveland Center
Tue 05:07:57 PM 42.0511 -83.6983 39° Northeast 350 403 12,000  Level Cleveland Center
Tue 05:08:21 PM 42.0725 -83.6714 43° Northeast 334 384 12,000  Level Cleveland Center
Tue 05:08:57 PM 42.1261 -83.6181 36° Northeast 351 404 12,000  Level Cleveland Center
Tue 05:09:21 PM 42.1564 -83.5803 43° Northeast 346 398 12,000  Level Cleveland Center
Tue 05:09:58 PM 42.1992 -83.5403 35° Northeast 273 314 12,000 -300 Level Cleveland Center
Tue 05:10:21 PM 42.2164 -83.5158 46° Northeast 313 360 11,700 -1,475 Descending Cleveland Center
Tue 05:10:59 PM 42.2589 -83.4897 24° Northeast 246 283 10,500 -1,200 Descending Cleveland Center
Tue 05:11:21 PM 42.2758 -83.4708 40° Northeast 266 306 10,500 -1,770 Level Cleveland Center
Tue 05:12:00 PM 42.3100 -83.4417 32° Northeast 234 269 8,700 -2,788 Descending Cleveland Center
Tue 05:13:00 PM 42.3739 -83.3911 30° Northeast 242 278 5,900 -2,331 Descending Cleveland Center
Tue 05:14:01 PM 42.4044 -83.3250 58° Northeast 229 264 4,000 -1,475 Descending Cleveland Center
Tue 05:15:02 PM 42.3683 -83.2728 133° Southeast 194 223 2,900 -595 Descending Cleveland Center
Tue 05:16:02 PM 42.3183 -83.2733 180° South 169 194 2,800 -446 Descending Cleveland Center
Tue 05:17:03 PM 42.2739 -83.2939 199° South 164 189 2,000 -787 Descending Cleveland Center

Login

Don't have an account? Register now (free) for customized features, flight alerts, and more!